TimeCDT,TemperatureF,Dew PointF,Humidity,Sea Level PressureIn,VisibilityMPH,Wind Direction,Wind SpeedMPH,Gust SpeedMPH,PrecipitationIn,Events,Conditions,WindDirDegrees,DateUTC
12:50 AM,80.6,73.4,79,30.06,10.0,Calm,Calm,-,N/A,,Partly Cloudy,0,2013-07-19 05:50:00
1:50 AM,78.8,73.4,83,30.04,10.0,Calm,Calm,-,N/A,,Scattered Clouds,0,2013-07-19 06:50:00
2:50 AM,78.8,73.4,83,30.04,10.0,Calm,Calm,-,N/A,,Scattered Clouds,0,2013-07-19 07:50:00
4:50 AM,78.8,73.4,83,30.02,10.0,Calm,Calm,-,N/A,,Scattered Clouds,0,2013-07-19 09:50:00
5:50 AM,78.8,73.4,83,30.02,10.0,Calm,Calm,-,N/A,,Scattered Clouds,0,2013-07-19 10:50:00
6:50 AM,78.8,75.2,89,30.03,10.0,Calm,Calm,-,N/A,,Scattered Clouds,0,2013-07-19 11:50:00
7:50 AM,78.8,75.2,89,30.06,10.0,Calm,Calm,-,N/A,,Mostly Cloudy,0,2013-07-19 12:50:00
8:50 AM,80.6,77.0,89,30.08,10.0,Calm,Calm,-,N/A,,Overcast,0,2013-07-19 13:50:00
9:50 AM,82.4,77.0,84,30.06,10.0,Calm,Calm,-,N/A,,Mostly Cloudy,0,2013-07-19 14:50:00
10:50 AM,87.8,78.8,75,30.06,10.0,Calm,Calm,-,N/A,,Mostly Cloudy,0,2013-07-19 15:50:00
11:50 AM,91.4,77.0,63,30.05,10.0,Calm,Calm,-,N/A,,Mostly Cloudy,0,2013-07-19 16:50:00
12:22 PM,91.4,77.0,63,30.04,5.0,NNE,6.9,-,N/A,Rain-Thunderstorm,Thunderstorms and Rain,20,2013-07-19 17:22:00
12:50 PM,82.4,71.6,70,30.08,2.0,East,10.4,-,N/A,Rain-Thunderstorm,Thunderstorms and Rain,100,2013-07-19 17:50:00
1:50 PM,75.2,69.8,83,30.03,7.0,SSE,4.6,-,N/A,,Overcast,150,2013-07-19 18:50:00
2:50 PM,80.6,75.2,84,30.02,7.0,East,4.6,-,N/A,,Overcast,100,2013-07-19 19:50:00
3:50 PM,82.4,75.2,79,30.00,8.0,ENE,8.1,-,N/A,,Overcast,60,2013-07-19 20:50:00
4:50 PM,80.6,75.2,84,30.00,8.0,ENE,5.8,-,N/A,,Overcast,60,2013-07-19 21:50:00
5:50 PM,78.8,73.4,83,29.98,10.0,NE,3.5,-,N/A,,Overcast,50,2013-07-19 22:50:00
6:50 PM,78.8,73.4,83,29.96,10.0,Calm,Calm,-,N/A,,Mostly Cloudy,0,2013-07-19 23:50:00
7:50 PM,78.8,73.4,83,29.97,10.0,Calm,Calm,-,N/A,,Mostly Cloudy,0,2013-07-20 00:50:00
8:50 PM,77.0,71.6,83,29.98,10.0,Calm,Calm,-,N/A,,Scattered Clouds,0,2013-07-20 01:50:00
9:50 PM,77.0,75.2,94,29.99,10.0,Calm,Calm,-,N/A,,Scattered Clouds,0,2013-07-20 02:50:00
10:50 PM,77.0,75.2,94,30.00,10.0,Calm,Calm,-,N/A,,Scattered Clouds,0,2013-07-20 03:50:00
11:50 PM,75.2,73.4,94,29.99,10.0,Calm,Calm,-,N/A,,Scattered Clouds,0,2013-07-20 04:50:00